[[{"header":{"parameterUnit":"m.s-1","parameterCategory":2,"la1":30.2991,"la2":30.254,"lo1":-89.0895,"lo2":-89.0444,"dy":0.0017,"dx":0.0017,"nx":28,"ny":28,"refTime":"2025-11-10T03:00:00:Z","depth":"0","parameterNumber":2,"parameterNumberName":"U-component_of_CURRENTS"},"data":[0,0,0,0,0,0,0,0,0,0,0,0,0,0,0,0,0,0,0,0,0,0,0,0,0,0,0,0,0,0,0,0,0,0,0,0,0,0,0,0,0,0,0,0,0,0,0,0,0,0,0,0,0,0,0,0,0,0,-0.2723,-0.2723,0,-0.2741,-0.2741,-0.2741,-0.2705,-0.2704,-0.2703,-0.2702,-0.2701,-0.2702,-0.2703,0,0,0,0,0,0,0,0,0,0,0,0,0,-0.2686,-0.2686,-0.2723,-0.2723,-0.2723,-0.2741,-0.2741,-0.2741,-0.2705,-0.2704,-0.2703,-0.2701,-0.27,-0.2702,-0.2703,0,0,0,0,0,0,0,0,0,0,0,0,0,-0.2701,-0.2686,-0.2723,-0.2709,-0.2708,-0.2741,-0.2741,-0.2741,-0.2705,-0.2704,-0.2702,-0.2701,-0.27,-0.2701,-0.2703,-0.2743,0,0,-0.2707,-0.2708,0,0,0,0,0,0,0,0,-0.27,-0.2702,-0.271,-0.271,-0.2709,-0.2721,-0.2728,-0.2742,-0.2706,-0.2705,-0.2702,-0.27,-0.2708,-0.2709,-0.2713,-0.2743,-0.2743,-0.2707,-0.2708,-0.2709,-0.2709,0,0,0,0,0,0,0,-0.2699,-0.2702,-0.2728,-0.2711,-0.271,-0.2712,-0.2712,-0.273,-0.2713,-0.2705,-0.2702,-0.2708,-0.2707,-0.2712,-0.2713,-0.2743,-0.2707,-0.2708,-0.2709,-0.271,-0.2798,-0.2799,0,0,0,0,0,0,-0.2701,-0.2701,-0.2728,-0.2729,-0.2702,-0.2714,-0.2714,-0.2717,-0.2713,-0.2712,-0.2709,-0.2706,-0.2711,-0.2711,-0.2713,-0.2748,-0.2709,-0.271,-0.2711,-0.2796,-0.2798,-0.28,0,0,0,0,0,0,-0.27,-0.2703,-0.2727,-0.2716,-0.272,-0.2716,-0.272,-0.2718,-0.2716,-0.2717,-0.2714,-0.2707,-0.2709,-0.2711,-0.2729,-0.2748,-0.2711,-0.2712,-0.2795,-0.2797,-0.2799,-0.2826,0,0,0,0,0,0,-0.2699,-0.2702,-0.2702,-0.2717,-0.2721,-0.2749,-0.2722,-0.272,-0.2723,-0.2718,-0.2716,-0.2714,-0.2708,-0.2727,-0.273,-0.2749,-0.2713,-0.2793,-0.2796,-0.2798,-0.2823,-0.2829,-0.2833,0,0,0,0,0,-0.2697,-0.2707,-0.2701,-0.2705,-0.2721,-0.275,-0.2752,-0.2743,-0.2724,-0.2732,-0.2728,-0.2714,-0.2747,-0.273,-0.2733,-0.2752,-0.2791,-0.2795,-0.2798,-0.2821,-0.2828,-0.2833,0,0,0,0,0,0,-0.2689,-0.2705,-0.2699,-0.2711,-0.2729,-0.2744,-0.275,-0.2746,-0.275,-0.2741,-0.2733,-0.2733,-0.2758,-0.2757,-0.2738,-0.2788,-0.2768,-0.2772,-0.2784,-0.279,-0.2795,-0.2801,-0.2714,0,0,0,0,0,-0.2689,-0.2695,-0.2717,-0.2724,-0.2735,-0.2742,-0.275,-0.2749,-0.2757,-0.2756,-0.2756,-0.2761,-0.2779,-0.2783,-0.2799,-0.2827,-0.282,-0.2843,-0.2848,-0.2853,-0.2861,-0.2883,-0.2891,-0.2811,-0.2811,-0.2811,0,0,-0.2686,-0.2696,-0.2698,-0.2723,-0.2731,-0.2757,-0.2742,-0.276,-0.2777,-0.2758,-0.2775,-0.2781,-0.2793,-0.2821,-0.2833,-0.2818,-0.2868,-0.2857,-0.286,-0.2867,-0.2887,-0.2895,-0.2902,-0.2813,-0.2813,-0.2812,0,0,-0.2691,-0.2695,-0.2706,-0.2727,-0.2749,-0.2763,-0.277,-0.279,-0.2792,-0.2818,-0.2811,-0.2832,-0.285,-0.2868,-0.2877,-0.2927,-0.2898,-0.2925,-0.2951,-0.2972,-0.2978,-0.2984,-0.296,-0.2964,-0.2923,-0.2923,-0.2923,0,-0.2687,-0.2702,-0.2715,-0.2739,-0.2756,-0.2768,-0.2793,-0.281,-0.2831,-0.2844,-0.2825,-0.2872,-0.2878,-0.2924,-0.2935,-0.2939,-0.2925,-0.2921,-0.2977,-0.2983,-0.2988,-0.2963,-0.2966,-0.2925,-0.2925,-0.2924,-0.2924,0,-0.2704,-0.272,-0.2732,-0.2762,-0.2788,-0.2812,-0.2845,-0.2865,-0.2868,-0.2884,-0.2923,-0.2937,-0.2962,-0.2971,-0.2964,-0.3011,-0.2979,-0.2982,-0.2956,-0.2997,-0.2968,-0.2971,-0.2927,-0.2927,-0.2926,-0.2926,0,0,-0.268,-0.2733,-0.2734,-0.2751,-0.2802,-0.2823,-0.2868,-0.2911,-0.2936,-0.2957,-0.2988,-0.3027,-0.3027,-0.304,-0.3041,-0.3057,-0.3073,-0.303,-0.303,-0.2997,-0.308,-0.3027,-0.3025,-0.3078,-0.3079,-0.308,-0.3034,0,-0.2685,-0.2725,-0.2756,-0.2797,-0.2821,-0.2861,-0.2903,-0.2945,-0.2973,-0.3008,-0.3035,-0.3065,-0.3056,-0.3063,-0.3084,-0.3083,-0.3086,-0.3083,-0.3054,-0.3053,-0.2994,-0.303,-0.2969,-0.2922,-0.3037,-0.3038,-0.3038,0,-0.2685,-0.2713,-0.2751,-0.2812,-0.2827,-0.2856,-0.292,-0.2959,-0.3023,-0.3047,-0.3088,-0.3103,-0.3141,-0.3122,-0.3142,-0.3133,-0.311,-0.3101,-0.3099,-0.3047,-0.3008,-0.2906,-0.2923,-0.2887,-0.3042,-0.3042,-0.3042,0,-0.2646,-0.2707,-0.2733,-0.2754,-0.2828,-0.2852,-0.2889,-0.2961,-0.3,-0.3065,-0.3096,-0.3143,-0.3159,-0.3162,-0.3144,-0.314,-0.3145,-0.314,-0.3068,-0.3061,-0.3005,-0.2992,-0.298,-0.3152,-0.3152,-0.3152,-0.3152,0,-0.2632,-0.2649,-0.2712,-0.2723,-0.2759,-0.2822,-0.2868,-0.2918,-0.2996,-0.3043,-0.3102,-0.3142,-0.317,-0.3177,-0.3154,-0.3115,-0.3154,-0.3077,-0.3059,-0.3009,-0.2998,-0.2961,-0.2964,-0.315,-0.3151,-0.3151,-0.3151,0,-0.2573,-0.2619,-0.2647,-0.2716,-0.2737,-0.2755,-0.2842,-0.2876,-0.2963,-0.3026,-0.3047,-0.3137,-0.315,-0.3155,-0.3152,-0.3119,-0.3034,-0.3063,-0.2979,-0.2953,-0.2853,-0.286,-0.2789,-0.2695,-0.2979,-0.2977,-0.2976,0,-0.2544,-0.2551,-0.2615,-0.2626,-0.265,-0.2695,-0.2728,-0.2835,-0.2879,-0.3017,-0.3036,-0.3093,-0.3124,-0.3102,-0.3067,-0.3015,-0.2966,-0.2904,-0.2904,-0.2844,-0.284,-0.2803,-0.2726,-0.2824,-0.2821,-0.2819,-0.2818,0,-0.2473,-0.2494,-0.2513,-0.2538,-0.2566,-0.2607,-0.2663,-0.2703,-0.283,-0.2908,-0.2995,-0.304,-0.3062,-0.3021,-0.2963,-0.2907,-0.2827,-0.2862,-0.284,-0.2755,-0.2677,-0.2578,-0.2828,-0.2801,-0.2803,-0.2804,-0.2805,-0.2806,-0.2402,-0.2396,-0.2417,-0.2429,-0.2463,-0.2484,-0.2481,-0.258,-0.2651,-0.2759,-0.288,-0.2973,-0.2994,-0.2929,-0.2839,-0.2702,-0.271,-0.2637,-0.2657,-0.2628,-0.253,-0.2722,-0.2657,-0.2658,-0.2659,-0.2659,-0.266,0,-0.2299,-0.23,-0.2305,-0.2314,-0.2296,-0.2356,-0.2405,-0.2398,-0.2447,-0.2636,-0.2726,-0.2915,-0.2842,-0.2818,-0.2717,-0.2568,-0.2444,-0.2463,-0.2417,-0.235,-0.2558,-0.2544,-0.2405,-0.2405,-0.2405,-0.2405,-0.2405,-0.2405,-0.2245,-0.2201,-0.2201,-0.2131,-0.2135,-0.2075,-0.2073,-0.2106,-0.2209,-0.2391,-0.2607,-0.2817,-0.2895,-0.291,-0.2686,-0.251,-0.2353,-0.2273,-0.2228,-0.2421,-0.2439,-0.2457,-0.2444,-0.2286,-0.2286,-0.1947,-0.1945,-0.1943]},{"header":{"parameterUnit":"m.s-1","parameterCategory":2,"la1":30.2991,"la2":30.254,"lo1":-89.0895,"lo2":-89.0444,"dy":0.0017,"dx":0.0017,"nx":28,"ny":28,"refTime":"2025-11-10T03:00:00:Z","depth":"0","parameterNumber":3,"parameterNumberName":"V-component_of_CURRENTS"},"data":[0,0,0,0,0,0,0,0,0,0,0,0,0,0,0,0,0,0,0,0,0,0,0,0,0,0,0,0,0,0,0,0,0,0,0,0,0,0,0,0,0,0,0,0,0,0,0,0,0,0,0,0,0,0,0,0,0,0,-0.0434,-0.0434,0,-0.0388,-0.0387,-0.0386,-0.0346,-0.0346,-0.0345,-0.0345,-0.0251,-0.0249,-0.0247,0,0,0,0,0,0,0,0,0,0,0,0,0,-0.0465,-0.0465,-0.0434,-0.0434,-0.0433,-0.0388,-0.0387,-0.0386,-0.0346,-0.0346,-0.0345,-0.0345,-0.0252,-0.0249,-0.0247,0,0,0,0,0,0,0,0,0,0,0,0,0,-0.0438,-0.0464,-0.0434,-0.0408,-0.0405,-0.0388,-0.0387,-0.0386,-0.0346,-0.0346,-0.0345,-0.0345,-0.0253,-0.025,-0.0246,-0.0239,0,0,-0.0237,-0.0235,0,0,0,0,0,0,0,0,-0.0439,-0.0437,-0.0412,-0.041,-0.0407,-0.0372,-0.0363,-0.0335,-0.0346,-0.0368,-0.0345,-0.0344,-0.0288,-0.0282,-0.0274,-0.0234,-0.023,-0.0236,-0.0234,-0.0233,-0.0232,0,0,0,0,0,0,0,-0.0441,-0.0438,-0.0415,-0.0412,-0.0408,-0.0391,-0.0386,-0.0358,-0.0331,-0.0366,-0.0363,-0.0359,-0.0286,-0.0278,-0.0272,-0.0229,-0.0236,-0.0234,-0.0232,-0.023,-0.0175,-0.0175,0,0,0,0,0,0,-0.045,-0.044,-0.0417,-0.0414,-0.0422,-0.0391,-0.0386,-0.0384,-0.0332,-0.0324,-0.036,-0.0357,-0.0283,-0.0276,-0.0268,-0.0261,-0.0233,-0.023,-0.0228,-0.0174,-0.0175,-0.0175,0,0,0,0,0,0,-0.0451,-0.0449,-0.0418,-0.0426,-0.0421,-0.0391,-0.0389,-0.0383,-0.0374,-0.0328,-0.0319,-0.0357,-0.0283,-0.0273,-0.025,-0.0256,-0.0229,-0.0226,-0.0174,-0.0174,-0.0175,-0.0242,0,0,0,0,0,0,-0.0452,-0.0449,-0.0453,-0.0427,-0.0421,-0.0416,-0.0389,-0.0383,-0.0373,-0.0369,-0.0322,-0.0313,-0.0281,-0.0256,-0.0247,-0.0251,-0.0223,-0.0173,-0.0174,-0.0175,-0.0239,-0.0245,-0.025,0,0,0,0,0,-0.0453,-0.0463,-0.0453,-0.045,-0.0426,-0.0416,-0.0412,-0.0388,-0.0373,-0.0376,-0.0345,-0.0314,-0.0254,-0.0254,-0.0244,-0.0247,-0.0173,-0.0174,-0.0175,-0.0237,-0.0244,-0.025,0,0,0,0,0,0,-0.0478,-0.0459,-0.0448,-0.0451,-0.0438,-0.041,-0.0409,-0.0393,-0.0371,-0.0366,-0.0321,-0.031,-0.0292,-0.0262,-0.0262,-0.0233,-0.0208,-0.0207,-0.0259,-0.0265,-0.027,-0.0276,-0.0221,0,0,0,0,0,-0.0486,-0.0488,-0.0466,-0.0469,-0.0464,-0.0438,-0.0431,-0.0416,-0.0393,-0.0382,-0.035,-0.0315,-0.0289,-0.0272,-0.0244,-0.0229,-0.0188,-0.0224,-0.0229,-0.0234,-0.0232,-0.0177,-0.0177,-0.0178,-0.0178,-0.0178,0,0,-0.0496,-0.0486,-0.0487,-0.0475,-0.046,-0.0466,-0.0432,-0.0427,-0.0429,-0.0375,-0.0367,-0.0333,-0.029,-0.0275,-0.0263,-0.025,-0.0214,-0.0235,-0.0239,-0.0235,-0.0178,-0.0178,-0.0178,-0.0179,-0.0179,-0.0179,0,0,-0.0525,-0.0509,-0.0523,-0.0517,-0.0504,-0.0488,-0.049,-0.0465,-0.0451,-0.0441,-0.0403,-0.0373,-0.0336,-0.0304,-0.0284,-0.03,-0.0245,-0.0292,-0.032,-0.0268,-0.0267,-0.0266,-0.0224,-0.0218,-0.0293,-0.0293,-0.0293,0,-0.054,-0.0553,-0.0526,-0.0541,-0.0542,-0.0503,-0.0522,-0.0504,-0.0476,-0.0465,-0.0448,-0.0384,-0.0348,-0.0321,-0.0329,-0.031,-0.0275,-0.0302,-0.0274,-0.0272,-0.027,-0.0227,-0.022,-0.0297,-0.0296,-0.0296,-0.0295,0,-0.058,-0.0592,-0.06,-0.0605,-0.0602,-0.0612,-0.0586,-0.0576,-0.0552,-0.0528,-0.0495,-0.0442,-0.0403,-0.0388,-0.0363,-0.0332,-0.0312,-0.0289,-0.026,-0.0274,-0.0228,-0.0219,-0.0301,-0.03,-0.0299,-0.0298,0,0,-0.0614,-0.0628,-0.0631,-0.065,-0.0639,-0.0645,-0.0643,-0.063,-0.0627,-0.0583,-0.0568,-0.0517,-0.0476,-0.045,-0.0407,-0.0359,-0.0317,-0.0324,-0.0319,-0.0285,-0.0206,-0.0192,-0.0181,-0.0288,-0.0287,-0.0286,-0.0184,0,-0.0657,-0.0705,-0.0694,-0.0737,-0.076,-0.0727,-0.073,-0.0709,-0.0677,-0.065,-0.0577,-0.0548,-0.0504,-0.0483,-0.043,-0.0345,-0.0296,-0.0347,-0.0194,-0.019,-0.0178,-0.0171,-0.0187,-0.0097,-0.0175,-0.0174,-0.0173,0,-0.0704,-0.0731,-0.0783,-0.0809,-0.0815,-0.0827,-0.0822,-0.082,-0.0764,-0.0735,-0.0679,-0.062,-0.0547,-0.0505,-0.0362,-0.0397,-0.031,-0.0238,-0.0232,-0.0188,-0.016,-0.0092,-0.0077,0.0084,-0.0159,-0.016,-0.0161,0,-0.0754,-0.0795,-0.0841,-0.0851,-0.0868,-0.0877,-0.0878,-0.0844,-0.0846,-0.0782,-0.0765,-0.0667,-0.0613,-0.0493,-0.0352,-0.0354,-0.0187,-0.0168,-0.0071,-0.0069,-0.0035,-0.0033,0.0153,-0.006,-0.006,-0.0061,-0.0061,0,-0.081,-0.0847,-0.0868,-0.0897,-0.0947,-0.0931,-0.0963,-0.0944,-0.0911,-0.0917,-0.0812,-0.0779,-0.0606,-0.0492,-0.0363,-0.0194,-0.0193,-0.0071,-0.0038,-0.0061,-0.0062,0.0117,0.0219,-0.0057,-0.0058,-0.0058,-0.0059,0,-0.0863,-0.0875,-0.0935,-0.0965,-0.0976,-0.1012,-0.1033,-0.1054,-0.1005,-0.1004,-0.0986,-0.0856,-0.0703,-0.053,-0.0324,-0.0212,0.0055,0.0009,-0.0037,-0.0011,0.0218,0.0316,0.0575,0.0658,0.0132,0.0133,0.0134,0,-0.0895,-0.093,-0.0993,-0.1036,-0.1054,-0.1097,-0.1129,-0.1106,-0.1123,-0.1053,-0.1055,-0.0904,-0.081,-0.0501,-0.0266,-0.0033,0.0121,0.0096,0.0094,0.0238,0.0372,0.0455,0.0512,0.0113,0.0113,0.0114,0.0114,0,-0.0957,-0.0976,-0.1026,-0.1119,-0.117,-0.1228,-0.1263,-0.129,-0.1259,-0.1245,-0.1188,-0.1103,-0.079,-0.0526,-0.0204,-0.006,0.0227,0.0113,0.0286,0.0396,0.0478,0.0569,0.0033,0.0118,0.0118,0.0118,0.0117,0.0117,-0.0995,-0.1049,-0.1118,-0.1203,-0.1273,-0.1347,-0.1398,-0.1427,-0.1456,-0.1443,-0.1318,-0.1196,-0.0748,-0.0295,-0.0116,0.0275,0.0309,0.0387,0.05,0.0574,0.0647,0.0112,0.0218,0.0218,0.0218,0.0218,0.0218,0,-0.1045,-0.1107,-0.1198,-0.1301,-0.1399,-0.1409,-0.1483,-0.1528,-0.158,-0.1543,-0.1483,-0.1064,-0.0623,-0.0182,0.0409,0.0646,0.0703,0.0771,0.0891,0.0933,0.0474,0.0461,0.0595,0.0595,0.0595,0.0595,0.0595,0.0594,-0.1073,-0.1169,-0.122,-0.1385,-0.1462,-0.1575,-0.1622,-0.1677,-0.1669,-0.1596,-0.1417,-0.1274,-0.0547,0.0502,0.106,0.1094,0.1315,0.1305,0.1447,0.1128,0.11,0.1074,0.1086,0.1348,0.1349,0.184,0.1845,0.1849]}],[{"header":{"parameterUnit":"m.s-1","parameterCategory":2,"la1":30.2991,"la2":30.254,"lo1":-89.0895,"lo2":-89.0444,"dy":0.0017,"dx":0.0017,"nx":28,"ny":28,"refTime":"2025-11-10T03:00:00:Z","depth":"2","parameterNumber":2,"parameterNumberName":"U-component_of_CURRENTS"},"data":[0,0,0,0,0,0,0,0,0,0,0,0,0,0,0,0,0,0,0,0,0,0,0,0,0,0,0,0,0,0,0,0,0,0,0,0,0,0,0,0,0,0,0,0,0,0,0,0,0,0,0,0,0,0,0,0,0,0,-0.2681,-0.2682,0,-0.2701,-0.2702,-0.2702,-0.2668,-0.2667,-0.2666,-0.2665,-0.2664,-0.2665,-0.2666,0,0,0,0,0,0,0,0,0,0,0,0,0,-0.2642,-0.2642,-0.2681,-0.2682,-0.2682,-0.2701,-0.2702,-0.2702,-0.2668,-0.2667,-0.2665,-0.2664,-0.2664,-0.2665,-0.2666,0,0,0,0,0,0,0,0,0,0,0,0,0,-0.2658,-0.2643,-0.2681,-0.2669,-0.2668,-0.2701,-0.2702,-0.2702,-0.2668,-0.2667,-0.2665,-0.2664,-0.2664,-0.2665,-0.2666,-0.2704,0,0,-0.267,-0.2671,0,0,0,0,0,0,0,0,-0.2658,-0.266,-0.267,-0.267,-0.2669,-0.2682,-0.2687,-0.2702,-0.2669,-0.2666,-0.2665,-0.2663,-0.2671,-0.2671,-0.2676,-0.2704,-0.2704,-0.2671,-0.2671,-0.2672,-0.2672,0,0,0,0,0,0,0,-0.2656,-0.2659,-0.2688,-0.2671,-0.267,-0.2672,-0.2672,-0.269,-0.2675,-0.2666,-0.2664,-0.267,-0.267,-0.2675,-0.2676,-0.2704,-0.2671,-0.2672,-0.2673,-0.2673,-0.2759,-0.276,0,0,0,0,0,0,-0.2658,-0.2658,-0.2687,-0.2688,-0.2661,-0.2674,-0.2674,-0.2678,-0.2675,-0.2674,-0.2671,-0.2668,-0.2673,-0.2674,-0.2676,-0.2711,-0.2672,-0.2673,-0.2674,-0.2758,-0.2759,-0.2761,0,0,0,0,0,0,-0.2657,-0.266,-0.2686,-0.2675,-0.2678,-0.2676,-0.2681,-0.2679,-0.2678,-0.2679,-0.2677,-0.2671,-0.2672,-0.2674,-0.2692,-0.2711,-0.2674,-0.2675,-0.2756,-0.2758,-0.276,-0.2788,0,0,0,0,0,0,-0.2656,-0.266,-0.266,-0.2675,-0.2679,-0.2708,-0.2682,-0.2681,-0.2685,-0.2681,-0.2679,-0.2677,-0.2671,-0.269,-0.2693,-0.2712,-0.2676,-0.2754,-0.2757,-0.2759,-0.2785,-0.2791,-0.2796,0,0,0,0,0,-0.2654,-0.2664,-0.2659,-0.2663,-0.268,-0.271,-0.2712,-0.2704,-0.2686,-0.2695,-0.2691,-0.2677,-0.271,-0.2693,-0.2696,-0.2715,-0.2753,-0.2756,-0.2759,-0.2783,-0.279,-0.2795,0,0,0,0,0,0,-0.2646,-0.2663,-0.2657,-0.2671,-0.2689,-0.2704,-0.271,-0.2708,-0.2712,-0.2703,-0.2696,-0.2696,-0.2721,-0.272,-0.2701,-0.275,-0.273,-0.2734,-0.2746,-0.2753,-0.2758,-0.2763,-0.2677,0,0,0,0,0,-0.2646,-0.2653,-0.2675,-0.2684,-0.2695,-0.2702,-0.2711,-0.271,-0.2719,-0.2718,-0.2718,-0.2724,-0.2742,-0.2745,-0.2761,-0.2788,-0.2782,-0.2805,-0.281,-0.2814,-0.2822,-0.2843,-0.2851,-0.2772,-0.2772,-0.2772,0,0,-0.2643,-0.2654,-0.2657,-0.2682,-0.2691,-0.2717,-0.2703,-0.2721,-0.2739,-0.2721,-0.2738,-0.2744,-0.2755,-0.2783,-0.2794,-0.278,-0.2829,-0.2818,-0.2822,-0.2827,-0.2847,-0.2855,-0.2861,-0.2774,-0.2774,-0.2773,0,0,-0.2649,-0.2654,-0.2666,-0.2687,-0.271,-0.2724,-0.2731,-0.2752,-0.2755,-0.2781,-0.2774,-0.2795,-0.2812,-0.2829,-0.2838,-0.2887,-0.286,-0.2886,-0.2911,-0.2932,-0.2938,-0.2944,-0.2921,-0.2925,-0.2884,-0.2884,-0.2884,0,-0.2646,-0.2661,-0.2675,-0.2699,-0.2717,-0.2729,-0.2754,-0.2772,-0.2793,-0.2806,-0.2788,-0.2834,-0.284,-0.2885,-0.2896,-0.2899,-0.2886,-0.2882,-0.2937,-0.2943,-0.2948,-0.2924,-0.2928,-0.2886,-0.2886,-0.2886,-0.2886,0,-0.2663,-0.2679,-0.2692,-0.2722,-0.2749,-0.2772,-0.2805,-0.2826,-0.283,-0.2846,-0.2885,-0.2898,-0.2923,-0.2931,-0.2925,-0.297,-0.2939,-0.2942,-0.2916,-0.2957,-0.293,-0.2933,-0.2889,-0.2888,-0.2887,-0.2887,0,0,-0.264,-0.2693,-0.2695,-0.2712,-0.2762,-0.2784,-0.2828,-0.2871,-0.2895,-0.2917,-0.2948,-0.2985,-0.2986,-0.2998,-0.3,-0.3015,-0.3032,-0.2989,-0.2989,-0.2957,-0.304,-0.2986,-0.2983,-0.3037,-0.3038,-0.3039,-0.2996,0,-0.2646,-0.2685,-0.2717,-0.2757,-0.2781,-0.2821,-0.2862,-0.2903,-0.2931,-0.2966,-0.2992,-0.3022,-0.3014,-0.3021,-0.3042,-0.3041,-0.3045,-0.3041,-0.3014,-0.3012,-0.2953,-0.2988,-0.2731,-0.267,-0.2999,-0.2999,-0.3,0,-0.2647,-0.2674,-0.2712,-0.2771,-0.2787,-0.2816,-0.2878,-0.2916,-0.298,-0.3003,-0.3043,-0.3058,-0.3096,-0.3078,-0.3098,-0.309,-0.3068,-0.306,-0.3058,-0.3004,-0.2966,-0.2689,-0.2662,-0.3004,-0.3004,-0.3003,-0.3003,0,-0.2607,-0.2669,-0.2694,-0.2715,-0.2788,-0.2812,-0.2849,-0.2918,-0.2956,-0.302,-0.305,-0.3096,-0.3113,-0.3117,-0.3101,-0.3097,-0.3103,-0.3098,-0.3026,-0.302,-0.2796,-0.2769,-0.311,-0.311,-0.311,-0.311,-0.3111,0,-0.2594,-0.2611,-0.2674,-0.2686,-0.2721,-0.2782,-0.2827,-0.2876,-0.2952,-0.2997,-0.3056,-0.3094,-0.3124,-0.3131,-0.311,-0.3072,-0.3111,-0.3035,-0.3018,-0.2797,-0.2772,-0.3066,-0.3061,-0.3109,-0.3109,-0.3109,-0.311,0,-0.2537,-0.2582,-0.261,-0.2679,-0.2699,-0.2717,-0.2802,-0.2835,-0.2919,-0.2979,-0.3,-0.3089,-0.3101,-0.3109,-0.3107,-0.3075,-0.305,-0.3021,-0.2742,-0.2695,-0.2944,-0.2941,-0.2941,-0.2939,-0.2937,-0.2936,-0.2935,0,-0.2508,-0.2515,-0.2579,-0.2589,-0.2613,-0.2658,-0.269,-0.2794,-0.2835,-0.2969,-0.2987,-0.3043,-0.3066,-0.3046,-0.2967,-0.2906,-0.2997,-0.2658,-0.2631,-0.295,-0.2932,-0.2933,-0.2933,-0.2321,-0.2315,-0.231,-0.2306,0,-0.2438,-0.2459,-0.2478,-0.2503,-0.253,-0.2569,-0.2623,-0.266,-0.2784,-0.2852,-0.2935,-0.2972,-0.2953,-0.2789,-0.2715,-0.2646,-0.2653,-0.2559,-0.2953,-0.2429,-0.2369,-0.2351,-0.237,-0.2261,-0.2266,-0.2269,-0.2271,-0.2273,-0.2368,-0.2363,-0.2384,-0.2395,-0.2428,-0.2447,-0.2442,-0.2515,-0.2574,-0.2624,-0.2762,-0.2737,-0.2698,-0.2479,-0.2338,-0.2214,-0.2417,-0.2301,-0.2314,-0.2333,-0.2295,-0.2238,-0.2095,-0.2099,-0.2102,-0.2104,-0.2106,0,-0.2261,-0.2268,-0.2273,-0.228,-0.2254,-0.2321,-0.2365,-0.2319,-0.2328,-0.2411,-0.2446,-0.2221,-0.2106,-0.2074,-0.1819,-0.1779,-0.1722,-0.1697,-0.1615,-0.1661,-0.1702,-0.163,-0.1254,-0.1251,-0.1249,-0.1247,0,0,-0.2205,-0.2159,-0.2158,-0.2082,-0.2093,-0.2014,-0.2009,-0.1971,-0.1978,-0.1931,-0.1923,-0.2054,-0.2081,-0.1697,-0.1572,-0.1386,-0.1512,-0.1305,-0.1991,-0.1945,-0.1983,-0.2052,-0.1993,0,0,0,0,0]},{"header":{"parameterUnit":"m.s-1","parameterCategory":2,"la1":30.2991,"la2":30.254,"lo1":-89.0895,"lo2":-89.0444,"dy":0.0017,"dx":0.0017,"nx":28,"ny":28,"refTime":"2025-11-10T03:00:00:Z","depth":"2","parameterNumber":3,"parameterNumberName":"V-component_of_CURRENTS"},"data":[0,0,0,0,0,0,0,0,0,0,0,0,0,0,0,0,0,0,0,0,0,0,0,0,0,0,0,0,0,0,0,0,0,0,0,0,0,0,0,0,0,0,0,0,0,0,0,0,0,0,0,0,0,0,0,0,0,0,-0.0363,-0.0362,0,-0.0317,-0.0316,-0.0315,-0.0277,-0.0276,-0.0276,-0.0275,-0.0183,-0.0181,-0.0179,0,0,0,0,0,0,0,0,0,0,0,0,0,-0.0393,-0.0393,-0.0363,-0.0362,-0.0362,-0.0317,-0.0316,-0.0315,-0.0277,-0.0276,-0.0276,-0.0275,-0.0184,-0.0182,-0.0179,0,0,0,0,0,0,0,0,0,0,0,0,0,-0.0366,-0.0393,-0.0363,-0.0338,-0.0335,-0.0317,-0.0316,-0.0315,-0.0277,-0.0276,-0.0276,-0.0275,-0.0185,-0.0182,-0.0179,-0.017,0,0,-0.0169,-0.0168,0,0,0,0,0,0,0,0,-0.0368,-0.0365,-0.0342,-0.0339,-0.0336,-0.0302,-0.0293,-0.0265,-0.0277,-0.0298,-0.0275,-0.0275,-0.022,-0.0214,-0.0206,-0.0166,-0.0162,-0.0169,-0.0167,-0.0166,-0.0165,0,0,0,0,0,0,0,-0.037,-0.0367,-0.0344,-0.0341,-0.0338,-0.032,-0.0316,-0.0287,-0.0261,-0.0296,-0.0293,-0.0289,-0.0218,-0.0209,-0.0203,-0.0161,-0.0169,-0.0166,-0.0164,-0.0163,-0.0108,-0.0109,0,0,0,0,0,0,-0.0379,-0.0369,-0.0345,-0.0343,-0.0352,-0.032,-0.0315,-0.0313,-0.0262,-0.0255,-0.029,-0.0288,-0.0215,-0.0207,-0.02,-0.0194,-0.0166,-0.0163,-0.0161,-0.0108,-0.0108,-0.0109,0,0,0,0,0,0,-0.0379,-0.0377,-0.0347,-0.0355,-0.035,-0.032,-0.0318,-0.0313,-0.0304,-0.0258,-0.0249,-0.0288,-0.0214,-0.0204,-0.0183,-0.019,-0.0161,-0.0158,-0.0107,-0.0108,-0.0109,-0.0177,0,0,0,0,0,0,-0.0381,-0.0378,-0.0381,-0.0356,-0.035,-0.0345,-0.0319,-0.0312,-0.0303,-0.03,-0.0253,-0.0244,-0.0213,-0.0188,-0.018,-0.0185,-0.0156,-0.0107,-0.0108,-0.0108,-0.0174,-0.018,-0.0185,0,0,0,0,0,-0.0382,-0.0392,-0.0382,-0.0379,-0.0355,-0.0345,-0.0341,-0.0317,-0.0304,-0.0307,-0.0276,-0.0246,-0.0187,-0.0186,-0.0176,-0.0181,-0.0106,-0.0107,-0.0108,-0.0172,-0.0179,-0.0185,0,0,0,0,0,0,-0.0407,-0.0388,-0.0377,-0.038,-0.0367,-0.0339,-0.0339,-0.0323,-0.0302,-0.0297,-0.0252,-0.0242,-0.0225,-0.0195,-0.0195,-0.0167,-0.0141,-0.014,-0.0193,-0.0199,-0.0204,-0.0212,-0.0153,0,0,0,0,0,-0.0416,-0.0417,-0.0395,-0.0399,-0.0393,-0.0367,-0.036,-0.0346,-0.0323,-0.0313,-0.0281,-0.0247,-0.0222,-0.0205,-0.0177,-0.0163,-0.0123,-0.0159,-0.0164,-0.0169,-0.0169,-0.0117,-0.0117,-0.0112,-0.0112,-0.0112,0,0,-0.0426,-0.0416,-0.0416,-0.0404,-0.039,-0.0396,-0.0362,-0.0357,-0.036,-0.0306,-0.0299,-0.0265,-0.0223,-0.0209,-0.0198,-0.0184,-0.0151,-0.017,-0.0175,-0.0172,-0.0118,-0.0118,-0.0119,-0.0113,-0.0113,-0.0113,0,0,-0.0455,-0.0439,-0.0453,-0.0447,-0.0434,-0.0418,-0.042,-0.0396,-0.0383,-0.0373,-0.0336,-0.0307,-0.027,-0.024,-0.022,-0.0237,-0.0183,-0.0229,-0.0259,-0.0209,-0.0209,-0.0209,-0.0167,-0.0162,-0.023,-0.023,-0.023,0,-0.047,-0.0484,-0.0456,-0.0471,-0.0473,-0.0433,-0.0453,-0.0436,-0.0408,-0.0398,-0.038,-0.0319,-0.0284,-0.0259,-0.0267,-0.0248,-0.0214,-0.024,-0.0216,-0.0215,-0.0213,-0.017,-0.0164,-0.0233,-0.0233,-0.0233,-0.0232,0,-0.0511,-0.0523,-0.0531,-0.0536,-0.0533,-0.0543,-0.0518,-0.0509,-0.0485,-0.0462,-0.0432,-0.038,-0.0342,-0.0327,-0.0302,-0.0275,-0.0254,-0.0231,-0.0201,-0.0217,-0.0172,-0.0164,-0.0238,-0.0237,-0.0236,-0.0235,0,0,-0.0546,-0.0559,-0.0563,-0.0582,-0.0571,-0.0577,-0.0576,-0.0564,-0.0563,-0.052,-0.0508,-0.0458,-0.0419,-0.0394,-0.035,-0.0305,-0.0266,-0.0269,-0.0265,-0.0231,-0.016,-0.0144,-0.0133,-0.0239,-0.0238,-0.0237,-0.0137,0,-0.0589,-0.0637,-0.0626,-0.0669,-0.0693,-0.066,-0.0664,-0.0645,-0.0614,-0.059,-0.0519,-0.0492,-0.0447,-0.0428,-0.0377,-0.0295,-0.0247,-0.0296,-0.0147,-0.0142,-0.0128,-0.0124,-0.0123,-0.0033,-0.0129,-0.0128,-0.0127,0,-0.0637,-0.0664,-0.0716,-0.0742,-0.0748,-0.0761,-0.0758,-0.0757,-0.0705,-0.0677,-0.0624,-0.0567,-0.0498,-0.0455,-0.0317,-0.035,-0.0264,-0.0193,-0.0187,-0.0141,-0.0111,-0.003,-0.0015,-0.0113,-0.0114,-0.0115,-0.0116,0,-0.0687,-0.0729,-0.0775,-0.0785,-0.0802,-0.0813,-0.0814,-0.0783,-0.0786,-0.0726,-0.0711,-0.0617,-0.0566,-0.0449,-0.031,-0.0311,-0.015,-0.0131,-0.0032,-0.003,0.0018,0.0022,-0.0027,-0.0027,-0.0027,-0.0027,-0.0028,0,-0.0744,-0.0782,-0.0802,-0.0831,-0.0882,-0.0867,-0.0901,-0.0883,-0.0853,-0.086,-0.0759,-0.0729,-0.0561,-0.0451,-0.0323,-0.0156,-0.0158,-0.0033,0.0,-0.0008,-0.0007,-0.0039,-0.0041,-0.0024,-0.0024,-0.0025,-0.0026,0,-0.0798,-0.0809,-0.0869,-0.0899,-0.0911,-0.0948,-0.0971,-0.0992,-0.0947,-0.0948,-0.0931,-0.0806,-0.0658,-0.0488,-0.0287,-0.0176,-0.0018,0.0043,0.0016,0.0044,0.0073,0.0066,0.0164,0.0166,0.0167,0.0168,0.0169,0,-0.083,-0.0865,-0.0928,-0.0971,-0.0989,-0.1033,-0.1066,-0.1045,-0.1062,-0.0997,-0.1001,-0.0855,-0.076,-0.0457,-0.0219,0.0013,0.0019,0.0149,0.0151,0.0072,0.0095,0.0085,0.0076,0.0187,0.0188,0.0189,0.019,0,-0.0891,-0.0911,-0.0961,-0.1054,-0.1105,-0.1163,-0.1199,-0.1227,-0.1197,-0.1182,-0.1128,-0.1042,-0.0731,-0.0455,-0.0135,0.0005,0.0109,0.0172,0.0117,0.0128,0.0099,0.0119,0.0109,0.0197,0.0196,0.0196,0.0195,0.0195,-0.093,-0.0984,-0.1052,-0.1138,-0.1208,-0.1281,-0.1332,-0.1345,-0.1369,-0.1321,-0.122,-0.1052,-0.0755,-0.0297,-0.0047,0.0199,0.0173,0.0253,0.0249,0.0244,0.0218,0.0192,0.0302,0.0302,0.0302,0.0302,0.0302,0,-0.0973,-0.1042,-0.1133,-0.1236,-0.1322,-0.1344,-0.1416,-0.1423,-0.1448,-0.1362,-0.1273,-0.0935,-0.0602,-0.0288,0.0105,0.0317,0.0315,0.0364,0.033,0.0321,0.0314,0.029,0.0395,0.0396,0.0396,0.0397,0,0,-0.0998,-0.1091,-0.1141,-0.1299,-0.1383,-0.1472,-0.1518,-0.1504,-0.144,-0.135,-0.1213,-0.0997,-0.0616,-0.0311,-0.0013,0.0203,0.0199,0.0225,0.0128,0.0044,0.0034,0.023,0.018,0,0,0,0,0]}],[{"header":{"parameterUnit":"m.s-1","parameterCategory":2,"la1":30.2991,"la2":30.254,"lo1":-89.0895,"lo2":-89.0444,"dy":0.0017,"dx":0.0017,"nx":28,"ny":28,"refTime":"2025-11-10T03:00:00:Z","depth":"4","parameterNumber":2,"parameterNumberName":"U-component_of_CURRENTS"},"data":[0,0,0,0,0,0,0,0,0,0,0,0,0,0,0,0,0,0,0,0,0,0,0,0,0,0,0,0,0,0,0,0,0,0,0,0,0,0,0,0,0,0,0,0,0,0,0,0,0,0,0,0,0,0,0,0,0,0,-0.1871,-0.1871,0,-0.1947,-0.1948,-0.1948,-0.1989,-0.1989,-0.1989,-0.1989,-0.2058,-0.2059,-0.2061,0,0,0,0,0,0,0,0,0,0,0,0,0,-0.1762,-0.1764,-0.187,-0.1872,-0.1873,-0.1947,-0.1948,-0.1948,-0.1989,-0.1989,-0.1989,-0.199,-0.2057,-0.2059,-0.2061,0,0,0,0,0,0,0,0,0,0,0,0,0,-0.1819,-0.1764,-0.187,-0.1903,-0.1907,-0.1946,-0.1948,-0.1949,-0.1989,-0.1989,-0.1989,-0.199,-0.2056,-0.2059,-0.2061,-0.2068,0,0,-0.2068,-0.2069,0,0,0,0,0,0,0,0,-0.1816,-0.1823,-0.1897,-0.1901,-0.1905,-0.196,-0.1935,-0.1989,-0.1988,-0.1956,-0.1989,-0.199,-0.2025,-0.203,-0.2041,-0.2072,-0.2074,-0.2069,-0.207,-0.2071,-0.2072,0,0,0,0,0,0,0,-0.1812,-0.182,-0.1899,-0.1898,-0.1903,-0.1915,-0.1923,-0.1945,-0.1986,-0.1958,-0.1962,-0.1973,-0.2027,-0.2039,-0.2043,-0.2075,-0.2069,-0.2071,-0.2072,-0.2073,-0.2196,-0.2197,0,0,0,0,0,0,-0.1806,-0.1816,-0.1896,-0.1901,-0.1863,-0.1917,-0.1926,-0.1941,-0.1986,-0.1994,-0.1973,-0.1975,-0.2035,-0.204,-0.2046,-0.2127,-0.2071,-0.2073,-0.2075,-0.2194,-0.2196,-0.2198,0,0,0,0,0,0,-0.1803,-0.1812,-0.1893,-0.1861,-0.1873,-0.1918,-0.1935,-0.1942,-0.1982,-0.1997,-0.2005,-0.2009,-0.2035,-0.2042,-0.2094,-0.2127,-0.2074,-0.2076,-0.2192,-0.2194,-0.2197,-0.2245,0,0,0,0,0,0,-0.18,-0.1811,-0.1834,-0.1861,-0.1875,-0.1938,-0.1935,-0.1943,-0.1988,-0.1992,-0.203,-0.2035,-0.2036,-0.2091,-0.2096,-0.213,-0.2078,-0.2189,-0.2193,-0.2196,-0.2241,-0.2249,-0.2256,0,0,0,0,0,-0.1796,-0.1822,-0.1835,-0.1845,-0.19,-0.194,-0.1948,-0.1979,-0.199,-0.2016,-0.2043,-0.2036,-0.2116,-0.2094,-0.2101,-0.2135,-0.2188,-0.2192,-0.2196,-0.2238,-0.2248,-0.2256,0,0,0,0,0,0,-0.1789,-0.183,-0.1844,-0.1883,-0.1919,-0.1948,-0.198,-0.1997,-0.2039,-0.2051,-0.2059,-0.2067,-0.2125,-0.2126,-0.2102,-0.2182,-0.2151,-0.2157,-0.2181,-0.219,-0.2197,-0.219,-0.208,0,0,0,0,0,-0.1797,-0.1829,-0.1866,-0.19,-0.1921,-0.1956,-0.1981,-0.2003,-0.2037,-0.2057,-0.2084,-0.2114,-0.2142,-0.2164,-0.2189,-0.2233,-0.2216,-0.2261,-0.2268,-0.2274,-0.2274,-0.2281,-0.2289,-0.2211,-0.2211,-0.2211,0,0,-0.1805,-0.1832,-0.1852,-0.1902,-0.1933,-0.197,-0.1973,-0.2022,-0.2058,-0.2057,-0.2125,-0.2145,-0.2161,-0.2212,-0.2237,-0.222,-0.2287,-0.228,-0.2285,-0.2281,-0.2286,-0.2293,-0.23,-0.2214,-0.2214,-0.2213,0,0,-0.1825,-0.1862,-0.1892,-0.1927,-0.198,-0.2002,-0.2023,-0.2072,-0.2103,-0.2161,-0.217,-0.2213,-0.2262,-0.2278,-0.229,-0.2355,-0.2327,-0.2369,-0.24,-0.2407,-0.2413,-0.2418,-0.2397,-0.24,-0.2371,-0.2371,-0.2371,0,-0.1835,-0.1875,-0.1909,-0.1946,-0.1979,-0.2019,-0.2058,-0.2096,-0.2158,-0.2184,-0.2193,-0.2271,-0.2291,-0.2337,-0.2362,-0.2372,-0.2359,-0.2362,-0.2415,-0.2419,-0.2423,-0.2401,-0.2403,-0.2374,-0.2374,-0.2373,-0.2373,0,-0.1865,-0.1912,-0.1936,-0.1994,-0.2034,-0.2078,-0.2128,-0.2179,-0.2219,-0.2248,-0.2317,-0.2346,-0.2386,-0.2406,-0.2405,-0.2452,-0.2427,-0.2422,-0.2386,-0.2434,-0.2407,-0.2409,-0.2378,-0.2377,-0.2376,-0.2375,0,0,-0.1845,-0.1939,-0.195,-0.1985,-0.2064,-0.2095,-0.2166,-0.2228,-0.2267,-0.2332,-0.2375,-0.2439,-0.2452,-0.2467,-0.2478,-0.249,-0.2511,-0.2473,-0.2472,-0.244,-0.2508,-0.2352,-0.2338,-0.2514,-0.2515,-0.2516,-0.2474,0,-0.1859,-0.1929,-0.1976,-0.2049,-0.2088,-0.2151,-0.2208,-0.2271,-0.2321,-0.2374,-0.2415,-0.2463,-0.2476,-0.2497,-0.2517,-0.2514,-0.2519,-0.2522,-0.2476,-0.2474,-0.232,-0.2336,-0.2519,-0.2474,-0.2475,-0.2475,-0.2475,0,-0.1861,-0.1911,-0.1983,-0.2073,-0.2097,-0.215,-0.2237,-0.2291,-0.237,-0.241,-0.2464,-0.249,-0.2535,-0.2531,-0.2551,-0.2552,-0.2537,-0.2528,-0.2526,-0.2362,-0.2321,-0.2421,-0.2477,-0.2477,-0.2477,-0.2477,-0.2476,0,-0.1807,-0.191,-0.1968,-0.2001,-0.211,-0.216,-0.2218,-0.2303,-0.2346,-0.2428,-0.2459,-0.2516,-0.2541,-0.2548,-0.2544,-0.255,-0.2538,-0.2539,-0.2382,-0.237,-0.2502,-0.2498,-0.2543,-0.2543,-0.2543,-0.2543,-0.2543,0,-0.178,-0.1829,-0.1954,-0.1983,-0.2051,-0.2137,-0.2206,-0.2271,-0.2353,-0.2384,-0.247,-0.2486,-0.2548,-0.255,-0.2542,-0.2452,-0.2537,-0.2377,-0.2348,-0.2523,-0.2522,-0.2502,-0.2498,-0.2542,-0.2542,-0.2542,-0.2543,0,-0.1701,-0.1789,-0.1859,-0.1986,-0.2027,-0.2072,-0.2191,-0.2224,-0.2324,-0.2363,-0.2389,-0.2468,-0.2464,-0.2495,-0.2492,-0.2423,-0.2371,-0.2321,-0.2489,-0.2473,-0.2198,-0.2197,-0.2128,-0.2122,-0.2117,-0.2113,-0.2109,0,-0.1662,-0.1695,-0.1838,-0.1875,-0.1937,-0.2023,-0.2069,-0.2191,-0.2215,-0.2324,-0.2314,-0.2362,-0.2395,-0.2255,-0.2314,-0.2263,-0.2249,-0.2198,-0.2212,-0.2175,-0.2155,-0.2163,-0.2168,-0.2101,-0.21,-0.2098,-0.2097,0,-0.1578,-0.1648,-0.1704,-0.1782,-0.1847,-0.1904,-0.1977,-0.1983,-0.2098,-0.2213,-0.2178,-0.2165,-0.2152,-0.2141,-0.2113,-0.2086,-0.2217,-0.2146,-0.2156,-0.2169,-0.2142,-0.2129,-0.2141,-0.208,-0.2082,-0.2084,-0.2085,0,-0.1513,-0.1531,-0.1613,-0.1661,-0.1739,-0.1747,-0.1811,-0.1832,-0.1875,-0.1998,-0.1979,-0.204,-0.2123,-0.2047,-0.2024,-0.1978,-0.1956,-0.1892,-0.1916,-0.1936,-0.1893,-0.1832,-0.1637,0,0,0,0,0,-0.1436,-0.1438,-0.1478,-0.1524,-0.1592,-0.163,-0.1725,-0.1789,-0.1906,-0.1827,-0.1898,-0.1879,-0.1842,-0.1878,-0.1789,-0.194,-0.1966,-0.1829,-0.1907,-0.1984,-0.2004,-0.1973,0,0,0,0,0,0,-0.1383,-0.1421,-0.143,-0.1391,-0.1392,-0.1443,-0.1497,-0.158,-0.1547,-0.1675,-0.1664,-0.176,-0.1753,-0.1862,-0.1749,-0.1759,-0.1766,-0.1878,-0.1873,-0.1973,-0.1991,-0.2007,-0.1982,0,0,0,0,0]},{"header":{"parameterUnit":"m.s-1","parameterCategory":2,"la1":30.2991,"la2":30.254,"lo1":-89.0895,"lo2":-89.0444,"dy":0.0017,"dx":0.0017,"nx":28,"ny":28,"refTime":"2025-11-10T03:00:00:Z","depth":"4","parameterNumber":3,"parameterNumberName":"V-component_of_CURRENTS"},"data":[0,0,0,0,0,0,0,0,0,0,0,0,0,0,0,0,0,0,0,0,0,0,0,0,0,0,0,0,0,0,0,0,0,0,0,0,0,0,0,0,0,0,0,0,0,0,0,0,0,0,0,0,0,0,0,0,0,0,-0.01,-0.01,0,-0.0072,-0.0072,-0.0072,-0.0048,-0.0048,-0.0048,-0.0047,0.0013,0.0015,0.0016,0,0,0,0,0,0,0,0,0,0,0,0,0,-0.0109,-0.0109,-0.01,-0.01,-0.0099,-0.0072,-0.0072,-0.0072,-0.0048,-0.0048,-0.0048,-0.0047,0.0013,0.0015,0.0016,0,0,0,0,0,0,0,0,0,0,0,0,0,-0.0095,-0.0109,-0.01,-0.0085,-0.0083,-0.0073,-0.0072,-0.0072,-0.0048,-0.0048,-0.0047,-0.0047,0.0012,0.0014,0.0017,0.0023,0,0,0.0023,0.0024,0,0,0,0,0,0,0,0,-0.0096,-0.0095,-0.0087,-0.0086,-0.0084,-0.0064,-0.0053,-0.0038,-0.0048,-0.0061,-0.0047,-0.0047,-0.001,-0.0006,-0.0001,0.0026,0.0028,0.0023,0.0024,0.0025,0.0026,0,0,0,0,0,0,0,-0.0097,-0.0096,-0.0089,-0.0087,-0.0085,-0.0071,-0.0069,-0.005,-0.0037,-0.006,-0.0058,-0.0056,-0.0009,-0.0003,0.0,0.0029,0.0023,0.0025,0.0026,0.0027,0.005,0.005,0,0,0,0,0,0,-0.0103,-0.0097,-0.009,-0.0088,-0.009,-0.0071,-0.0069,-0.007,-0.0038,-0.0033,-0.0056,-0.0055,-0.0007,-0.0002,0.0003,-0.0008,0.0025,0.0027,0.0028,0.0051,0.005,0.0049,0,0,0,0,0,0,-0.0103,-0.0103,-0.0091,-0.0092,-0.0089,-0.0072,-0.0073,-0.007,-0.0068,-0.0035,-0.003,-0.0058,-0.0007,-0.0,0.0009,-0.0005,0.0028,0.003,0.0052,0.0051,0.005,-0.0017,0,0,0,0,0,0,-0.0104,-0.0103,-0.0108,-0.0092,-0.0089,-0.0093,-0.0073,-0.007,-0.0067,-0.0065,-0.0035,-0.0029,-0.0006,0.0006,0.0011,-0.0001,0.0032,0.0052,0.0051,0.005,-0.0014,-0.002,-0.0025,0,0,0,0,0,-0.0104,-0.0115,-0.0109,-0.0108,-0.0097,-0.0094,-0.0092,-0.0077,-0.0067,-0.0072,-0.0054,-0.003,0.0002,0.0007,0.0014,0.0001,0.0053,0.0052,0.005,-0.0011,-0.0019,-0.0025,0,0,0,0,0,0,-0.0123,-0.0113,-0.0106,-0.0114,-0.0108,-0.009,-0.0093,-0.0082,-0.0072,-0.007,-0.0037,-0.0031,-0.0028,-0.0004,0.0,0.0004,0.0032,0.0031,-0.0017,-0.0024,-0.003,-0.0045,0.0034,0,0,0,0,0,-0.013,-0.0135,-0.0123,-0.013,-0.0128,-0.0111,-0.0109,-0.01,-0.0087,-0.0082,-0.0062,-0.0041,-0.0029,-0.0019,-0.0003,0.0,0.0026,-0.0003,-0.0009,-0.0014,-0.0022,-0.0001,-0.0006,0.0045,0.0045,0.0045,0,0,-0.0139,-0.0135,-0.0138,-0.0134,-0.0127,-0.0137,-0.0109,-0.0111,-0.0122,-0.0077,-0.0084,-0.006,-0.0032,-0.0032,-0.0029,-0.0014,-0.0013,-0.0016,-0.002,-0.0025,-0.0003,-0.0008,-0.0012,0.0044,0.0044,0.0044,0,0,-0.0165,-0.0157,-0.0172,-0.0172,-0.0167,-0.0158,-0.0162,-0.0149,-0.0145,-0.0147,-0.012,-0.0108,-0.0085,-0.0072,-0.0061,-0.0087,-0.0045,-0.0079,-0.0118,-0.0099,-0.0103,-0.0106,-0.0074,-0.0074,-0.0081,-0.0081,-0.0081,0,-0.0178,-0.0195,-0.0176,-0.0192,-0.02,-0.0173,-0.0195,-0.0189,-0.0176,-0.0177,-0.0158,-0.0133,-0.0107,-0.011,-0.0119,-0.0101,-0.0077,-0.0096,-0.0107,-0.011,-0.0112,-0.0078,-0.0077,-0.0084,-0.0084,-0.0083,-0.0083,0,-0.0214,-0.0231,-0.0241,-0.0254,-0.0258,-0.0273,-0.0263,-0.0266,-0.0254,-0.0244,-0.0241,-0.0205,-0.019,-0.0179,-0.0157,-0.0162,-0.0136,-0.0118,-0.0092,-0.0121,-0.0083,-0.0081,-0.0089,-0.0088,-0.0087,-0.0086,0,0,-0.0237,-0.0263,-0.0268,-0.0291,-0.0294,-0.0306,-0.0323,-0.0332,-0.0348,-0.0323,-0.0336,-0.0309,-0.0281,-0.0268,-0.0234,-0.0214,-0.0204,-0.0177,-0.0174,-0.0149,-0.0151,-0.0118,-0.0112,-0.0188,-0.0188,-0.0188,-0.0116,0,-0.0274,-0.0324,-0.0325,-0.0376,-0.0401,-0.039,-0.0412,-0.0415,-0.0404,-0.0407,-0.0366,-0.0362,-0.0317,-0.0309,-0.0285,-0.0228,-0.0202,-0.0224,-0.0123,-0.012,-0.009,-0.011,-0.0189,-0.0114,-0.0114,-0.0113,-0.0113,0,-0.0311,-0.0342,-0.0399,-0.0446,-0.0456,-0.0482,-0.0511,-0.0525,-0.0516,-0.0504,-0.0484,-0.0447,-0.0418,-0.0373,-0.0292,-0.0308,-0.0238,-0.0186,-0.0181,-0.0128,-0.0083,-0.0079,-0.0108,-0.0109,-0.0109,-0.0109,-0.011,0,-0.034,-0.0396,-0.0448,-0.0463,-0.0505,-0.0532,-0.0552,-0.0557,-0.0577,-0.0562,-0.0565,-0.0519,-0.0494,-0.0416,-0.0302,-0.0301,-0.02,-0.0182,-0.0084,-0.008,-0.0101,-0.0098,-0.0123,-0.0123,-0.0123,-0.0123,-0.0124,0,-0.0378,-0.0421,-0.047,-0.0499,-0.0568,-0.0575,-0.0633,-0.064,-0.0649,-0.0673,-0.0617,-0.0611,-0.0504,-0.0429,-0.0325,-0.0196,-0.0215,-0.0095,-0.0064,-0.0129,-0.013,-0.0098,-0.0096,-0.0121,-0.0121,-0.0122,-0.0122,0,-0.04,-0.043,-0.0498,-0.0559,-0.0585,-0.0631,-0.0693,-0.0728,-0.0723,-0.0749,-0.0748,-0.0684,-0.0582,-0.0457,-0.0318,-0.0225,-0.0105,-0.0048,-0.012,-0.0093,0.0008,0.0006,0.0052,0.0054,0.0055,0.0057,0.0058,0,-0.0413,-0.0449,-0.0542,-0.0593,-0.0626,-0.0694,-0.0743,-0.0765,-0.0792,-0.0789,-0.0798,-0.0715,-0.0652,-0.0429,-0.0297,-0.0095,-0.0058,0.0008,-0.0001,-0.0002,0.0024,0.0019,0.0015,0.006,0.006,0.0061,0.0061,0,-0.0439,-0.0474,-0.0529,-0.0634,-0.0704,-0.078,-0.084,-0.0865,-0.088,-0.0881,-0.0827,-0.0714,-0.0591,-0.0422,-0.0256,-0.0113,-0.0041,0.0023,0.0021,0.0013,0.0008,0.0031,0.0025,0.0066,0.0065,0.0065,0.0064,0,-0.0452,-0.05,-0.0578,-0.0667,-0.0761,-0.0836,-0.0869,-0.0889,-0.0908,-0.0886,-0.0868,-0.0732,-0.0655,-0.043,-0.0284,-0.0135,-0.0099,-0.0049,-0.0047,-0.0051,-0.0098,-0.012,-0.0081,0,0,0,0,0,-0.046,-0.0518,-0.0608,-0.0707,-0.0799,-0.0851,-0.0923,-0.094,-0.095,-0.0913,-0.0886,-0.0764,-0.054,-0.0448,-0.0292,-0.0264,-0.0081,-0.0076,-0.0025,0.0093,0.0087,0.0052,0,0,0,0,0,0,-0.0469,-0.0551,-0.0603,-0.0716,-0.0786,-0.0882,-0.093,-0.0941,-0.0908,-0.0895,-0.0776,-0.0713,-0.0497,-0.0623,-0.0284,-0.0241,-0.0184,0.0027,0.0031,0.0096,0.0091,0.0086,0.0049,0,0,0,0,0]}]]